sat.trackr.live / text

‹ back to catalog

STARLINK-30222

NORAD 57409 · 2023-102F

PAYLOAD ACTIVE UNKNOWN

§ Identity

Operator
Country
US
Launch date
2023-07-20
Launch site
AFWTR
Launch vehicle
Mass (kg)
RCS (m²)

Purposes: comms

External: N2YO · Heavens-Above · Gunter

§ Orbital elements

Epoch: 2026-05-25T01:52:25.084704Z

Period
94.27 min
Inclination
43.0041°
Eccentricity
0.0001738
Mean motion
15.27573404 rev/d
Perigee alt
481.9 km
Apogee alt
484.3 km
Semi-major
6,861.2 km
B*
5.3107e-5
RAAN
177.0885°
Arg perigee
280.8297°
Mean anomaly
79.2359°
Rev number
15,792

§ Raw data

STARLINK-302221 57409U 23102F   26145.07806811  .00001199  00000+0  53107-4 0  99912 57409  43.0041 177.0885 0001738 280.8297  79.2359 15.27573404157927

JSON: /api/v1/satellites/57409 · /tle

For live sub-satellite position, see the globe view (requires WebGL).

§ Visibility from observer

Set your observer location to see the next 7 days of passes ≥ 10°. The values pass through the URL so the page stays shareable.

No JS? Fill the form by hand. The geolocation button needs JavaScript.